When you browse on this site, cookies collect data to enhance your experience and personalize the content and advertising you see.
Visit our Privacy Policy to learn more. By continuing to use the site, you agree to this use of cookies and data.
  • In Austria
  • List of Countries
  • For 7 days
  • Water Temperature
  • Weather Map
  • News
  • Weather Widgets
  • user-avatar
    Login

    Hourly Weather Khashuri

    Today, 26 January, Sunday

    Time Temperature Precipitation Wind Pressure Humidity
    00:00 -13°C° 0 mm 2 mps 611 mmHg 78%
    01:00 -13°C° 0 mm 2 mps 611 mmHg 77%
    02:00 -13°C° 0 mm 2 mps 611 mmHg 76%
    03:00 -13°C° 0 mm 2 mps 611 mmHg 76%
    04:00 -13°C° 0 mm 2 mps 611 mmHg 75%
    05:00 -13°C° 0 mm 2 mps 611 mmHg 75%
    06:00 -13°C° 0 mm 2 mps 611 mmHg 74%
    07:00 -13°C° 0 mm 2 mps 611 mmHg 74%
    08:00 -12°C° 0 mm 2 mps 612 mmHg 74%
    09:00 -10°C° 0 mm 2 mps 612 mmHg 75%
    10:00 -9°C° 0 mm 2 mps 612 mmHg 74%
    11:00 -7°C° 0 mm 2 mps 613 mmHg 73%
    12:00 -6°C° 0 mm 2 mps 613 mmHg 72%
    13:00 -3°C° 0 mm 1 mps 613 mmHg 74%
    14:00 -3°C° 0 mm 1 mps 613 mmHg 76%
    15:00 -3°C° 0 mm 1 mps 613 mmHg 77%
    16:00 -4°C° 0 mm 1 mps 613 mmHg 79%
    17:00 -7°C° 0 mm 1 mps 612 mmHg 80%
    18:00 -8°C° 0 mm 1 mps 612 mmHg 81%
    19:00 -9°C° 0 mm 1 mps 612 mmHg 81%
    20:00 -9°C° 0 mm 1 mps 612 mmHg 80%
    21:00 -9°C° 0 mm 1 mps 612 mmHg 79%
    22:00 -10°C° 0 mm 1 mps 612 mmHg 79%
    23:00 -10°C° 0 mm 1 mps 612 mmHg 78%

    Tomorrow, 27 January, Monday

    Time Temperature Precipitation Wind Pressure Humidity
    00:00 -10°C° 0 mm 1 mps 612 mmHg 77%
    01:00 -10°C° 0 mm 1 mps 612 mmHg 77%
    02:00 -11°C° 0 mm 1 mps 612 mmHg 76%
    03:00 -11°C° 0 mm 1 mps 612 mmHg 75%
    04:00 -13°C° 0 mm 2 mps 612 mmHg 74%
    05:00 -13°C° 0 mm 2 mps 612 mmHg 73%
    06:00 -13°C° 0 mm 2 mps 612 mmHg 72%
    07:00 -12°C° 0 mm 2 mps 613 mmHg 72%
    08:00 -9°C° 0 mm 1 mps 613 mmHg 73%
    09:00 -8°C° 0 mm 1 mps 614 mmHg 73%
    10:00 -7°C° 0 mm 1 mps 614 mmHg 73%
    11:00 -4°C° 0 mm 1 mps 615 mmHg 74%
    12:00 -3°C° 0 mm 1 mps 615 mmHg 74%
    13:00 -2°C° 0 mm 1 mps 615 mmHg 76%
    14:00 -2°C° 0 mm 1 mps 615 mmHg 77%
    15:00 -2°C° 0 mm 1 mps 614 mmHg 78%
    16:00 -3°C° 0 mm 1 mps 614 mmHg 74%
    17:00 -6°C° 0 mm 1 mps 613 mmHg 69%
    18:00 -8°C° 0 mm 2 mps 613 mmHg 65%
    19:00 -8°C° 0 mm 2 mps 613 mmHg 64%
    20:00 -9°C° 0 mm 2 mps 613 mmHg 64%
    21:00 -9°C° 0 mm 2 mps 612 mmHg 63%
    22:00 -9°C° 0 mm 2 mps 612 mmHg 62%
    23:00 -9°C° 0 mm 2 mps 612 mmHg 62%

    Day after tomorrow, 28 January, Tuesday

    Time Temperature Precipitation Wind Pressure Humidity
    00:00 -9°C° 0 mm 2 mps 612 mmHg 61%
    01:00 -9°C° 0 mm 2 mps 612 mmHg 61%
    02:00 -9°C° 0 mm 2 mps 611 mmHg 61%
    03:00 -9°C° 0 mm 2 mps 611 mmHg 61%
    04:00 -10°C° 0 mm 2 mps 611 mmHg 61%
    05:00 -10°C° 0 mm 2 mps 611 mmHg 61%
    06:00 -10°C° 0 mm 2 mps 611 mmHg 61%
    07:00 -9°C° 0 mm 2 mps 611 mmHg 63%
    08:00 -8°C° 0 mm 2 mps 611 mmHg 65%
    09:00 -8°C° 0 mm 2 mps 611 mmHg 67%
    10:00 -6°C° 0 mm 2 mps 611 mmHg 69%
    11:00 -5°C° 0 mm 2 mps 611 mmHg 72%
    12:00 -3°C° 0 mm 2 mps 611 mmHg 74%
    13:00 -3°C° 0 mm 2 mps 611 mmHg 74%
    14:00 -3°C° 0 mm 2 mps 611 mmHg 75%
    15:00 -3°C° 0 mm 2 mps 610 mmHg 75%
    16:00 -4°C° 0 mm 2 mps 610 mmHg 72%
    17:00 -6°C° 0 mm 2 mps 609 mmHg 69%
    18:00 -8°C° 0 mm 3 mps 609 mmHg 65%
    19:00 -9°C° 0 mm 3 mps 609 mmHg 65%
    20:00 -9°C° 0 mm 3 mps 609 mmHg 65%
    21:00 -9°C° 0 mm 3 mps 609 mmHg 65%
    22:00 -9°C° 0 mm 3 mps 609 mmHg 69%
    23:00 -8°C° 0 mm 3 mps 609 mmHg 72%

    29 January, Wednesday

    Time Temperature Precipitation Wind Pressure Humidity
    00:00 -7°C° 0 mm 2 mps 609 mmHg 75%
    01:00 -7°C° 0 mm 2 mps 609 mmHg 77%
    02:00 -8°C° 0 mm 2 mps 608 mmHg 79%
    03:00 -8°C° 0 mm 2 mps 608 mmHg 81%
    04:00 -8°C° 0 mm 2 mps 608 mmHg 81%
    05:00 -8°C° 0 mm 2 mps 608 mmHg 82%
    06:00 -8°C° 0 mm 2 mps 608 mmHg 82%
    07:00 -8°C° 0 mm 2 mps 608 mmHg 83%
    08:00 -7°C° 0 mm 2 mps 609 mmHg 83%
    09:00 -6°C° 0 mm 1 mps 609 mmHg 84%
    10:00 -4°C° 0 mm 1 mps 609 mmHg 84%
    11:00 -3°C° 0 mm 1 mps 609 mmHg 84%
    12:00 -2°C° 0 mm 1 mps 609 mmHg 85%
    13:00 -1°C° 0.1 mm 1 mps 609 mmHg 86%
    14:00 -1°C° 0.1 mm 1 mps 609 mmHg 87%
    15:00 -1°C° 0.1 mm 1 mps 609 mmHg 88%
    16:00 -2°C° 0 mm 1 mps 609 mmHg 88%
    17:00 -6°C° 0 mm 2 mps 608 mmHg 87%
    18:00 -7°C° 0 mm 2 mps 608 mmHg 86%
    19:00 -7°C° 0 mm 2 mps 608 mmHg 85%
    20:00 -8°C° 0 mm 2 mps 608 mmHg 84%
    21:00 -8°C° 0 mm 2 mps 609 mmHg 83%
    22:00 -8°C° 0 mm 2 mps 609 mmHg 83%
    23:00 -8°C° 0 mm 2 mps 609 mmHg 83%

    30 January, Thursday

    Time Temperature Precipitation Wind Pressure Humidity
    00:00 -9°C° 0 mm 2 mps 609 mmHg 83%
    01:00 -9°C° 0 mm 2 mps 609 mmHg 83%
    02:00 -9°C° 0 mm 2 mps 609 mmHg 83%
    03:00 -10°C° 0 mm 2 mps 608 mmHg 83%
    04:00 -10°C° 0 mm 2 mps 608 mmHg 83%
    05:00 -10°C° 0 mm 2 mps 608 mmHg 83%
    06:00 -10°C° 0 mm 2 mps 608 mmHg 83%
    07:00 -9°C° 0 mm 2 mps 609 mmHg 82%
    08:00 -9°C° 0 mm 2 mps 609 mmHg 82%
    09:00 -8°C° 0 mm 2 mps 609 mmHg 82%
    10:00 -7°C° 0 mm 2 mps 609 mmHg 81%
    11:00 -5°C° 0 mm 2 mps 610 mmHg 81%
    12:00 -4°C° 0 mm 2 mps 610 mmHg 80%
    13:00 -4°C° 0 mm 2 mps 609 mmHg 80%
    14:00 -4°C° 0 mm 2 mps 609 mmHg 80%
    15:00 -4°C° 0 mm 2 mps 609 mmHg 79%
    16:00 -5°C° 0 mm 2 mps 608 mmHg 79%
    17:00 -8°C° 0 mm 3 mps 608 mmHg 78%
    18:00 -9°C° 0 mm 3 mps 607 mmHg 78%
    19:00 -9°C° 0 mm 3 mps 607 mmHg 78%
    20:00 -9°C° 0 mm 3 mps 607 mmHg 78%
    21:00 -10°C° 0 mm 3 mps 607 mmHg 79%
    22:00 -9°C° 0 mm 3 mps 607 mmHg 80%
    23:00 -9°C° 0 mm 3 mps 607 mmHg 81%

    31 January, Friday

    Time Temperature Precipitation Wind Pressure Humidity
    00:00 -9°C° 0 mm 3 mps 606 mmHg 82%
    01:00 -9°C° 0 mm 3 mps 606 mmHg 82%
    02:00 -9°C° 0 mm 3 mps 606 mmHg 82%
    03:00 -9°C° 0 mm 3 mps 606 mmHg 82%
    04:00 -9°C° 0 mm 3 mps 606 mmHg 82%
    05:00 -9°C° 0 mm 3 mps 606 mmHg 82%
    06:00 -9°C° 0 mm 3 mps 606 mmHg 82%
    07:00 -8°C° 0 mm 3 mps 606 mmHg 82%
    08:00 -7°C° 0 mm 3 mps 606 mmHg 82%
    09:00 -7°C° 0 mm 3 mps 606 mmHg 82%
    10:00 -6°C° 0 mm 3 mps 606 mmHg 82%
    11:00 -5°C° 0 mm 3 mps 606 mmHg 81%
    12:00 -4°C° 0 mm 3 mps 606 mmHg 81%
    13:00 -4°C° 0 mm 3 mps 606 mmHg 81%
    14:00 -2°C° 0 mm 2 mps 605 mmHg 82%
    15:00 -2°C° 0 mm 2 mps 605 mmHg 82%
    16:00 -3°C° 0 mm 2 mps 605 mmHg 83%
    17:00 -4°C° 0 mm 2 mps 605 mmHg 83%
    18:00 -5°C° 0 mm 2 mps 605 mmHg 84%
    19:00 -3°C° 0.1 mm 1 mps 605 mmHg 87%
    20:00 -3°C° 0.1 mm 1 mps 605 mmHg 89%
    21:00 -3°C° 0.1 mm 1 mps 605 mmHg 92%
    22:00 -3°C° 0.3 mm 1 mps 605 mmHg 93%
    23:00 -3°C° 0.3 mm 1 mps 606 mmHg 94%
    Show more